Other Surface Observations
Issued by NWS

Current Version | Previous Version | Text Only | Print | Product List | Glossary On
Versions: 1 2 3 4 5 6 7 8 9 10 11 12 13 14 15 16 17 18 19 20 21 22 23 24 25 26 27 28 29 30 31 32 33 34 35 36 37 38 39 40 41 42 43 44 45 46 47 48 49 50
000
SXUS52 KTAE 290919
OSOTAE
OSOTAE
North Florida/South Alabama/Southwest Georgia Weather Roundup
National Weather Service Tallahassee Florida
500 AM EDT SUN MAY 29 2016

Note: "fair" indicates few or no clouds below 12,000 feet with no
significant weather and/or obstructions to visibility.

!FLZ017-115-028-034-025-291000
...North Florida...

CITY           SKY/WX    TMP DP  RH WIND       PRES   REMARKS
TALLAHASSEE    CLEAR     72  67  84 CALM      30.04R
APALACHICOLA   CLEAR     73  73 100 N6        30.02S
PERRY          CLEAR     72  68  87 NE3       30.04S
CROSS CITY       N/A     71  67  87 CALM      30.03R
JACKSONVILLE   CLEAR     65  65 100 W6        30.03R
$$

!FLZ112-006-005-002-011-291000
...Florida Panhandle...

CITY           SKY/WX    TMP DP  RH WIND       PRES   REMARKS
MARIANNA       CLEAR     70  70 100 CALM      30.03S
BONIFAY        NOT AVBL
PANAMA CITY NW FAIR      68  66  93 NW6       30.04R
TYNDALL AFB    CLEAR     71  68  90 W5        30.04R
TYND DRONE APT FAIR      73  71  93 NW6       30.04R
DE FUNIAK SPR  FAIR      68  66  93 NW5       30.06R
EGLIN AFB      PTCLDY    69  65  87 N3        30.04S
DESTIN         CLEAR     76  70  82 NW3       30.04S
HURLBURT       CLEAR     67  65  91 N2        30.03S
CRESTVIEW      CLEAR     64  62  93 CALM      30.07R
PENSACOLA      CLEAR     71  67  87 N5        30.04F
$$

!ALZ063-066-291000
...South Alabama...

CITY           SKY/WX    TMP DP  RH WIND       PRES   REMARKS
DOTHAN         CLEAR     70  66  87 N5        30.08S
OZARK CAIRNS   CLEAR     72  68  89 VRB5      30.04S
FT RUCKER HELI CLEAR     66  64  93 CALM      30.04S
RUCKER HELI 3  NOT AVBL
RUCKER HELI 2  NOT AVBL
FLORALA APT    PTCLDY    69  66  90 CALM      30.07S
ANDALUSIA      PTCLDY    74  68  81 NW3       30.06S
TROY           CLOUDY    70  67  90 CALM      30.07S
EUFALA         FAIR      64  61  90 CALM      30.07R
MOBILE         PTCLDY    69  68  96 CALM      30.06S
$$

!GAZ120>161-291000
...Southwest and South Central Georgia...

CITY           SKY/WX    TMP DP  RH WIND       PRES   REMARKS
THOMASVILLE    FAIR      68  66  94 CALM      30.06S
BAINBRIDGE     CLEAR     72  70  94 CALM      30.05R
MOODY AFB      CLEAR     67  65  92 CALM      30.04S
VALDOSTA       CLEAR     67  65  93 CALM      30.05S
MOULTRIE       CLEAR     68  64  88 CALM      30.06R
BLAKELY        CLEAR     66  64  94 CALM      30.06R
ALBANY         CLEAR     67  64  90 NW3       30.08R
TIFTON         FAIR      66  66  99 CALM      30.06R
FITZGERALD     FAIR      66  64  91 CALM      30.08S
CORDELE        FAIR      68  66  94 CALM      30.07S
AMERICUS       FAIR      64  64 100 CALM      30.09R
HOMERVILLE     FAIR      63  63 100 W3        30.05R
$$

!GMZ750-755-770-775-291000
...Coastal and Buoy Obs...

STATION/POSITION TIME  TEMP    WIND        PRES    VSBY  WAVE
                       AIR SEA DIR/SP/G                  HT/PER
                 (UTC) (F)     (DEG/KT/KT) (MB)    (MI)  (FT/S)
KEATON BEACH     0900   71      70/  6/  7 1016.6R
CEDAR KEY        0900   77     130/  9/ 10 1017.4R
C TOWER          0900   76     350/  9/ 10 1017.2S
APALACHICOLA BUO 0850   78 78   40/  8/ 10 1016.7R         1/ 3
PANAMA CITY BUOY 0850   78 80   10/  6/  8 1017.1F         1/ 5
MOBILE BUOY      0900   78 79  100/  2/  4 1017.0R
ORANGE BCH AL BU 0850   78 80     CALM     1016.7R         2/ 6
$$




USA.gov is the U.S. government's official web portal to all federal, state and local government web resources and services.